Weather History for Indianapolis, IN

Change the Weather History Date:

Sunday, August 4, 2013

  Actual Average Record
Temperature  
Mean Temperature 70 °F 75 °F  
Max Temperature 80 °F 84 °F 99 °F (1887)
Min Temperature 60 °F 65 °F 49 °F (1912)
Degree Days  
Heating Degree Days 0 0  
Month to date heating degree days 0 0  
Since 1 June heating degree days 12 17  
Since 1 July heating degree days 3 1  
Cooling Degree Days 5 10  
Month to date cooling degree days 31 40  
Year to date cooling degree days 671 673  
Since 1 June cooling degree days 542 589  
Growing Degree Days 20 (Base 50)    
Moisture  
Dew Point 52 °F    
Average Humidity 54    
Maximum Humidity 72    
Minimum Humidity 36    
Precipitation  
Precipitation 0.00 in 0.10 in 3.81 in (2009)
Month to date precipitation 0.71 0.43  
Year to date precipitation 29.49 26.63  
Snow  
Snow 0.00 in 0.00 in - ()
Month to date snowfall 0.0 0.0  
Since 1 June snowfall 0.0 0.0  
Since 1 July snowfall 0.0 0.0  
Snow Depth 0.00 in    
Sea Level Pressure  
Sea Level Pressure 30.12 in    
Wind  
Wind Speed 6 mph (NNE)    
Max Wind Speed 15 mph    
Max Gust Speed 20 mph    
Visibility 10 miles    
Events      
T = Trace of Precipitation, MM = Missing Value Source: NWS Daily Summary

Daily Weather History Graph

Daily Weather History Graph

Search for Another Location

Airport:

Trip Planner

Search our weather history database for the weather conditions in past years. The results will help you decide how hot, cold, wet, or windy it might be!

Date:

Astronomy

Aug. 04, 2013 Rise Set
Actual Time 6:47 AM EDT 8:54 PM EDT
Civil Twilight 6:17 AM EDT 9:24 PM EDT
Nautical Twilight 5:40 AM EDT 10:00 PM EDT
Astronomical Twilight 5:00 AM EDT 10:40 PM EDT
Moon 4:47 AM EDT (8/4) 7:17 PM EDT (8/4)
Length of Visible Light 15h 06m
Length of Day
14h 07m
Waning Crescent, 5% of the Moon is Illuminated
Aug 4
Waning Crescent
Aug 6
New
Aug 14
First Quarter
Aug 20
Full
Aug 28
Last Quarter

Hourly Weather History & Observations

Time (EDT) Temp. Dew Point Humidity Pressure Visibility Wind Dir Wind Speed Gust Speed Precip Events Conditions
12:54 AM 66.9 °F 51.1 °F 57% 30.08 in 10.0 mi North 8.1 mph - N/A   Overcast
1:54 AM 64.0 °F 51.1 °F 63% 30.09 in 10.0 mi North 5.8 mph - N/A   Scattered Clouds
2:54 AM 61.0 °F 52.0 °F 72% 30.08 in 10.0 mi NNW 5.8 mph - N/A   Clear
3:54 AM 60.1 °F 52.0 °F 75% 30.09 in 10.0 mi North 6.9 mph - N/A   Clear
4:54 AM 61.0 °F 51.1 °F 70% 30.09 in 10.0 mi North 8.1 mph - N/A   Partly Cloudy
5:54 AM 60.1 °F 51.1 °F 72% 30.09 in 10.0 mi North 8.1 mph - N/A   Partly Cloudy
6:54 AM 60.1 °F 50.0 °F 69% 30.12 in 10.0 mi North 8.1 mph - N/A   Partly Cloudy
7:54 AM 62.1 °F 52.0 °F 70% 30.13 in 10.0 mi NNE 6.9 mph - N/A   Partly Cloudy
8:54 AM 64.9 °F 53.1 °F 65% 30.15 in 10.0 mi NE 5.8 mph - N/A   Partly Cloudy
9:54 AM 69.1 °F 53.1 °F 57% 30.15 in 10.0 mi NE 6.9 mph - N/A   Partly Cloudy
10:54 AM 72.0 °F 53.1 °F 51% 30.16 in 10.0 mi NNE 10.4 mph - N/A   Partly Cloudy
11:54 AM 73.9 °F 53.1 °F 48% 30.16 in 10.0 mi ENE 5.8 mph - N/A   Partly Cloudy
12:54 PM 75.9 °F 52.0 °F 43% 30.15 in 10.0 mi NNE 5.8 mph - N/A   Scattered Clouds
1:54 PM 77.0 °F 48.9 °F 37% 30.15 in 10.0 mi NE 10.4 mph 18.4 mph N/A   Scattered Clouds
2:54 PM 78.1 °F 51.1 °F 39% 30.14 in 10.0 mi NNW 10.4 mph - N/A   Scattered Clouds
3:54 PM 75.9 °F 50.0 °F 40% 30.13 in 10.0 mi Variable 5.8 mph - N/A   Mostly Cloudy
4:54 PM 79.0 °F 50.0 °F 36% 30.12 in 10.0 mi Variable 5.8 mph - N/A   Mostly Cloudy
5:54 PM 79.0 °F 51.1 °F 38% 30.11 in 10.0 mi NNE 4.6 mph - N/A   Scattered Clouds
6:54 PM 78.1 °F 50.0 °F 37% 30.10 in 10.0 mi NNW 5.8 mph - N/A   Scattered Clouds
7:54 PM 75.9 °F 53.1 °F 45% 30.10 in 10.0 mi NNW 5.8 mph - N/A   Scattered Clouds
8:54 PM 72.0 °F 52.0 °F 49% 30.10 in 10.0 mi North 6.9 mph - N/A   Mostly Cloudy
9:54 PM 71.1 °F 54.0 °F 55% 30.11 in 10.0 mi NNE 3.5 mph - N/A   Mostly Cloudy
10:54 PM 71.1 °F 53.1 °F 53% 30.11 in 10.0 mi ENE 3.5 mph - N/A   Mostly Cloudy
11:54 PM 69.1 °F 54.0 °F 58% 30.11 in 10.0 mi Calm Calm - N/A   Mostly Cloudy